Flag for Norway Weather past 2 weeks in Knarrevik/Straume, Norway

Now
51 °F

Clear.


Feels Like: 51 °F
Forecast: 54 / 61 °F
Wind: 1 mph from Southeast

Location: Bergen / Flesland

Current Time: Aug 29, 2014 at 5:52:04 AM

Latest Report: Aug 29, 2014 at 5:00 AM


Visibility: 6 mi

Pressure: 29.87 "Hg

Humidity: 95%

Dew point: 49 °F

Location of Knarrevik/StraumeLocation

Historic Weather in Knarrevik/Straume — Graph

°F

Knarrevik/Straume temperature yesterday

Maximum temperature yesterday: 63 °F (at 3:00 PM)
Minimum temperature yesterday: 50 °F (at 2:00 AM)
Average temperature yesterday: 56 °F

Past Weeks' High & Low Weather Summary

 TemperatureHumidityPressure
High69 °F (Aug 14, 6:00 PM)98% (Aug 26, 6:00 AM)29.98 "Hg (Aug 26, 6:00 AM)
Low48 °F (Aug 26, 5:00 AM)50% (Aug 14, 2:00 PM)29.18 "Hg (Aug 18, 12:00 PM)
Average55 °F82%29.66 "Hg
* Reported Aug 14 4:00 AM — Aug 29 4:00 AM, Knarrevik/Straume, Weather by CustomWeather, © 2014

Note: Actual official high and low records may vary slightly from our data, if they occured in-between our weather recording intervals... More about our weather records

Advertising

Knarrevik/Straume weather history for previous 24 hours

 ConditionsComfort  
Time TempWeatherWind HumidityBarometerVisibility
4:00 AM
Aug 29
51 °FClear.2 mph94%29.88 "Hg10 mi
3:00 AM51 °FClear.2 mph94%29.90 "Hg17 mi
2:00 AM51 °FClear.1 mph93%29.90 "Hg19 mi
1:00 AM51 °FClear.2 mph92%29.90 "Hg14 mi
12:00 AM51 °FClear.No wind91%29.92 "Hg19 mi
11:00 PM
Aug 28
52 °FClear.1 mph90%29.93 "Hg22 mi
10:00 PM53 °FClear.1 mph86%29.93 "Hg22 mi
9:00 PM56 °FClear.2 mph79%29.94 "Hg28 mi
8:00 PM58 °FSunny.3 mph72%29.94 "Hg22 mi
7:00 PM60 °FSunny.2 mph69%29.94 "Hg19 mi
6:00 PM61 °FSunny.5 mph69%29.95 "Hg17 mi
5:00 PM61 °FSunny.3 mph68%29.96 "Hg16 mi
4:00 PM61 °FSunny.5 mph69%29.96 "Hg22 mi
3:00 PM63 °FPassing clouds.5 mph67%29.96 "Hg22 mi
2:00 PM62 °FPartly sunny.5 mph67%29.97 "Hg19 mi
1:00 PM61 °FScattered clouds.6 mph70%29.96 "Hg22 mi
12:00 PM58 °FOvercast.6 mph76%29.97 "Hg22 mi
11:00 AM57 °FOvercast.5 mph81%29.97 "Hg25 mi
10:00 AM56 °FOvercast.6 mph81%29.97 "Hg22 mi
9:00 AM56 °FOvercast.6 mph85%29.96 "Hg22 mi
8:00 AM55 °FOvercast.5 mph93%29.96 "Hg17 mi
7:00 AM52 °FPassing clouds.3 mph96%29.96 "Hg16 mi
6:00 AM52 °FClear.2 mph97%29.95 "Hg19 mi
5:00 AM51 °FClear.2 mph97%29.95 "Hg19 mi
Weather by CustomWeather, © 2014

See weather overviewHow to use our weather pages